Saint Bonnet de Bellac- Haute Vienne - France
Donnes mto: jeudi, 10/11/2011
Date Horaire Temp. E. Hum. E. P.atmo. Pluie Vent Direction Direction Ensoleilleme Solaire P. de rose Temp au vent Rafales
10/11/2011 00:00 9,8 C 89 % 1015,7 hPa 0,0 mm 1,4 km/h (1 Bft) E-SE 112 0 min 0 W/m 8,1 C 9,8 C 2,9 km/h (1 Bft)
10/11/2011 00:05 9,8 C 89 % 1015,7 hPa 0,0 mm 5,0 km/h (1 Bft) SE 135 0 min 0 W/m 8,1 C 9,5 C 6,8 km/h (2 Bft)
10/11/2011 00:10 9,8 C 89 % 1015,7 hPa 0,0 mm 4,3 km/h (1 Bft) E-SE 112 0 min 0 W/m 8,1 C 9,8 C 4,3 km/h (1 Bft)
10/11/2011 00:15 9,8 C 89 % 1015,7 hPa 0,0 mm 5,4 km/h (2 Bft) E 90 0 min 0 W/m 8,1 C 9,4 C 6,5 km/h (2 Bft)
10/11/2011 00:20 9,9 C 89 % 1015,8 hPa 0,0 mm 3,6 km/h (1 Bft) E-SE 112 0 min 0 W/m 8,2 C 9,9 C 6,8 km/h (2 Bft)
10/11/2011 00:25 9,9 C 89 % 1015,8 hPa 0,0 mm 0,0 km/h (0 Bft) E-SE 112 0 min 0 W/m 8,2 C 9,9 C 0,0 km/h (0 Bft)
10/11/2011 00:30 9,8 C 89 % 1015,8 hPa 0,0 mm 0,0 km/h (0 Bft) S-SE 157 0 min 0 W/m 8,1 C 9,8 C 0,0 km/h (0 Bft)
10/11/2011 00:35 9,8 C 89 % 1015,8 hPa 0,0 mm 0,0 km/h (0 Bft) SE 135 0 min 0 W/m 8,1 C 9,8 C 0,0 km/h (0 Bft)
10/11/2011 00:40 9,7 C 89 % 1015,8 hPa 0,0 mm 0,0 km/h (0 Bft) E-SE 112 0 min 0 W/m 8,0 C 9,7 C 2,9 km/h (1 Bft)
10/11/2011 00:45 9,6 C 88 % 1015,7 hPa 0,0 mm 3,2 km/h (1 Bft) E 90 0 min 0 W/m 7,7 C 9,6 C 8,3 km/h (2 Bft)
10/11/2011 00:50 9,4 C 88 % 1015,7 hPa 0,0 mm 0,7 km/h (0 Bft) E-NE 67 0 min 0 W/m 7,5 C 9,4 C 0,7 km/h (0 Bft)
10/11/2011 00:55 9,3 C 88 % 1015,7 hPa 0,0 mm 0,0 km/h (0 Bft) E-NE 67 0 min 0 W/m 7,4 C 9,3 C 0,0 km/h (0 Bft)
10/11/2011 01:00 9,2 C 88 % 1015,6 hPa 0,0 mm 2,2 km/h (1 Bft) E 90 0 min 0 W/m 7,3 C 9,2 C 4,7 km/h (1 Bft)
10/11/2011 01:05 9,1 C 89 % 1015,6 hPa 0,0 mm 2,9 km/h (1 Bft) SE 135 0 min 0 W/m 7,4 C 9,1 C 4,0 km/h (1 Bft)
10/11/2011 01:10 9,1 C 89 % 1015,6 hPa 0,0 mm 1,1 km/h (1 Bft) E 90 0 min 0 W/m 7,4 C 9,1 C 6,1 km/h (2 Bft)
10/11/2011 01:15 9,1 C 89 % 1015,6 hPa 0,0 mm 0,0 km/h (0 Bft) E-SE 112 0 min 0 W/m 7,4 C 9,1 C 1,4 km/h (1 Bft)
10/11/2011 01:20 9,2 C 89 % 1015,5 hPa 0,0 mm 0,0 km/h (0 Bft) E-SE 112 0 min 0 W/m 7,5 C 9,2 C 0,0 km/h (0 Bft)
10/11/2011 01:25 9,1 C 89 % 1015,6 hPa 0,0 mm 0,0 km/h (0 Bft) E-SE 112 0 min 0 W/m 7,4 C 9,1 C 0,0 km/h (0 Bft)
10/11/2011 01:30 9,1 C 89 % 1015,5 hPa 0,0 mm 0,0 km/h (0 Bft) E-SE 112 0 min 0 W/m 7,4 C 9,1 C 0,0 km/h (0 Bft)
10/11/2011 01:35 8,9 C 89 % 1015,5 hPa 0,0 mm 0,0 km/h (0 Bft) E-SE 112 0 min 0 W/m 7,2 C 8,9 C 0,0 km/h (0 Bft)
10/11/2011 01:40 8,8 C 89 % 1015,4 hPa 0,0 mm 0,0 km/h (0 Bft) E-SE 112 0 min 0 W/m 7,1 C 8,8 C 0,0 km/h (0 Bft)
10/11/2011 01:45 8,8 C 89 % 1015,5 hPa 0,0 mm 0,7 km/h (0 Bft) E 90 0 min 0 W/m 7,1 C 8,8 C 4,0 km/h (1 Bft)
10/11/2011 01:50 8,8 C 89 % 1015,4 hPa 0,0 mm 1,8 km/h (1 Bft) E-SE 112 0 min 0 W/m 7,1 C 8,8 C 4,3 km/h (1 Bft)
10/11/2011 01:55 8,8 C 90 % 1015,5 hPa 0,0 mm 0,4 km/h (0 Bft) SE 135 0 min 0 W/m 7,3 C 8,8 C 4,3 km/h (1 Bft)
10/11/2011 02:02 8,8 C 90 % 1015,4 hPa 0,0 mm 0,0 km/h (0 Bft) E-SE 112 0 min 0 W/m 7,3 C 8,8 C 0,0 km/h (0 Bft)
10/11/2011 02:05 8,8 C 90 % 1015,3 hPa 0,0 mm 0,0 km/h (0 Bft) E-SE 112 0 min 0 W/m 7,3 C 8,8 C 0,0 km/h (0 Bft)
10/11/2011 02:10 8,8 C 90 % 1015,3 hPa 0,0 mm 0,0 km/h (0 Bft) E-SE 112 0 min 0 W/m 7,3 C 8,8 C 0,0 km/h (0 Bft)
10/11/2011 02:15 8,8 C 90 % 1015,3 hPa 0,0 mm 0,0 km/h (0 Bft) SE 135 0 min 0 W/m 7,3 C 8,8 C 0,0 km/h (0 Bft)
10/11/2011 02:20 8,8 C 90 % 1015,3 hPa 0,0 mm 0,0 km/h (0 Bft) E-SE 112 0 min 0 W/m 7,3 C 8,8 C 0,0 km/h (0 Bft)
10/11/2011 02:25 8,9 C 90 % 1015,2 hPa 0,0 mm 1,1 km/h (1 Bft) SE 135 0 min 0 W/m 7,4 C 8,9 C 4,0 km/h (1 Bft)
10/11/2011 02:30 8,9 C 90 % 1015,3 hPa 0,0 mm 0,4 km/h (0 Bft) E-SE 112 0 min 0 W/m 7,4 C 8,9 C 3,6 km/h (1 Bft)
10/11/2011 02:35 9,0 C 90 % 1015,3 hPa 0,0 mm 0,7 km/h (0 Bft) SE 135 0 min 0 W/m 7,4 C 9,0 C 4,0 km/h (1 Bft)
10/11/2011 02:40 9,2 C 90 % 1015,3 hPa 0,0 mm 1,8 km/h (1 Bft) E-SE 112 0 min 0 W/m 7,6 C 9,2 C 3,6 km/h (1 Bft)
10/11/2011 02:45 9,3 C 90 % 1015,3 hPa 0,0 mm 0,0 km/h (0 Bft) E-SE 112 0 min 0 W/m 7,7 C 9,3 C 0,0 km/h (0 Bft)
10/11/2011 02:50 9,2 C 90 % 1015,2 hPa 0,0 mm 0,0 km/h (0 Bft) E-SE 112 0 min 0 W/m 7,6 C 9,2 C 0,0 km/h (0 Bft)
10/11/2011 02:55 9,1 C 90 % 1015,2 hPa 0,0 mm 0,0 km/h (0 Bft) E-SE 112 0 min 0 W/m 7,5 C 9,1 C 0,0 km/h (0 Bft)
10/11/2011 03:00 8,9 C 89 % 1015,2 hPa 0,0 mm 0,0 km/h (0 Bft) E-SE 112 0 min 0 W/m 7,2 C 8,9 C 0,0 km/h (0 Bft)
10/11/2011 03:05 8,8 C 89 % 1015,1 hPa 0,0 mm 0,0 km/h (0 Bft) E 90 0 min 0 W/m 7,1 C 8,8 C 0,0 km/h (0 Bft)
10/11/2011 03:10 8,7 C 89 % 1015,0 hPa 0,0 mm 1,1 km/h (1 Bft) E 90 0 min 0 W/m 7,0 C 8,7 C 4,0 km/h (1 Bft)
10/11/2011 03:15 8,6 C 90 % 1014,9 hPa 0,0 mm 1,8 km/h (1 Bft) E 90 0 min 0 W/m 7,1 C 8,6 C 4,3 km/h (1 Bft)
10/11/2011 03:20 8,5 C 90 % 1015,0 hPa 0,0 mm 2,5 km/h (1 Bft) E 90 0 min 0 W/m 7,0 C 8,5 C 4,3 km/h (1 Bft)
10/11/2011 03:25 8,5 C 90 % 1014,9 hPa 0,0 mm 3,2 km/h (1 Bft) E-SE 112 0 min 0 W/m 7,0 C 8,5 C 4,3 km/h (1 Bft)
10/11/2011 03:30 8,5 C 90 % 1015,0 hPa 0,0 mm 0,0 km/h (0 Bft) SE 135 0 min 0 W/m 7,0 C 8,5 C 0,0 km/h (0 Bft)
10/11/2011 03:35 8,4 C 90 % 1015,1 hPa 0,0 mm 0,0 km/h (0 Bft) SE 135 0 min 0 W/m 6,9 C 8,4 C 0,0 km/h (0 Bft)
10/11/2011 03:40 8,3 C 90 % 1015,0 hPa 0,0 mm 0,4 km/h (0 Bft) E-SE 112 0 min 0 W/m 6,8 C 8,3 C 2,9 km/h (1 Bft)
10/11/2011 03:45 8,1 C 90 % 1015,0 hPa 0,0 mm 0,0 km/h (0 Bft) E 90 0 min 0 W/m 6,6 C 8,1 C 0,0 km/h (0 Bft)
10/11/2011 03:50 8,1 C 90 % 1015,0 hPa 0,0 mm 0,0 km/h (0 Bft) E 90 0 min 0 W/m 6,6 C 8,1 C 0,0 km/h (0 Bft)
10/11/2011 03:55 8,1 C 90 % 1014,9 hPa 0,0 mm 0,0 km/h (0 Bft) E-SE 112 0 min 0 W/m 6,6 C 8,1 C 0,0 km/h (0 Bft)
10/11/2011 04:00 8,1 C 91 % 1014,9 hPa 0,0 mm 0,0 km/h (0 Bft) E-SE 112 0 min 0 W/m 6,7 C 8,1 C 0,0 km/h (0 Bft)
10/11/2011 04:05 8,1 C 91 % 1014,9 hPa 0,0 mm 0,0 km/h (0 Bft) E-SE 112 0 min 0 W/m 6,7 C 8,1 C 0,0 km/h (0 Bft)
10/11/2011 04:10 8,0 C 91 % 1014,8 hPa 0,0 mm 0,0 km/h (0 Bft) E-SE 112 0 min 0 W/m 6,6 C 8,0 C 0,0 km/h (0 Bft)
10/11/2011 04:15 8,1 C 91 % 1014,7 hPa 0,0 mm 0,0 km/h (0 Bft) E-SE 112 0 min 0 W/m 6,7 C 8,1 C 3,2 km/h (1 Bft)
10/11/2011 04:20 8,2 C 91 % 1014,8 hPa 0,0 mm 2,5 km/h (1 Bft) E 90 0 min 0 W/m 6,8 C 8,2 C 4,3 km/h (1 Bft)
10/11/2011 04:25 8,2 C 91 % 1014,7 hPa 0,0 mm 2,2 km/h (1 Bft) E-SE 112 0 min 0 W/m 6,8 C 8,2 C 4,3 km/h (1 Bft)
10/11/2011 04:30 8,3 C 91 % 1014,7 hPa 0,0 mm 2,2 km/h (1 Bft) E-SE 112 0 min 0 W/m 6,9 C 8,3 C 2,2 km/h (1 Bft)
10/11/2011 04:35 8,5 C 91 % 1014,8 hPa 0,0 mm 0,4 km/h (0 Bft) SE 135 0 min 0 W/m 7,1 C 8,5 C 3,6 km/h (1 Bft)
10/11/2011 04:40 8,7 C 91 % 1014,8 hPa 0,0 mm 0,7 km/h (0 Bft) E-SE 112 0 min 0 W/m 7,3 C 8,7 C 3,2 km/h (1 Bft)
10/11/2011 04:45 8,8 C 91 % 1014,7 hPa 0,0 mm 1,1 km/h (1 Bft) E-SE 112 0 min 0 W/m 7,4 C 8,8 C 3,6 km/h (1 Bft)
10/11/2011 04:50 8,8 C 91 % 1014,7 hPa 0,0 mm 2,2 km/h (1 Bft) E-SE 112 0 min 0 W/m 7,4 C 8,8 C 4,3 km/h (1 Bft)
10/11/2011 04:55 8,9 C 91 % 1014,7 hPa 0,0 mm 0,0 km/h (0 Bft) E-SE 112 0 min 0 W/m 7,5 C 8,9 C 0,0 km/h (0 Bft)
10/11/2011 05:00 8,9 C 91 % 1014,7 hPa 0,0 mm 0,0 km/h (0 Bft) E-SE 112 0 min 0 W/m 7,5 C 8,9 C 0,0 km/h (0 Bft)
10/11/2011 05:05 8,8 C 91 % 1014,6 hPa 0,0 mm 0,0 km/h (0 Bft) E-SE 112 0 min 0 W/m 7,4 C 8,8 C 0,0 km/h (0 Bft)
10/11/2011 05:10 8,9 C 91 % 1014,5 hPa 0,0 mm 0,0 km/h (0 Bft) E-SE 112 0 min 0 W/m 7,5 C 8,9 C 0,0 km/h (0 Bft)
10/11/2011 05:15 8,9 C 91 % 1014,5 hPa 0,0 mm 0,0 km/h (0 Bft) E-NE 67 0 min 0 W/m 7,5 C 8,9 C 2,9 km/h (1 Bft)
10/11/2011 05:20 8,8 C 91 % 1014,5 hPa 0,0 mm 0,0 km/h (0 Bft) E 90 0 min 0 W/m 7,4 C 8,8 C 0,0 km/h (0 Bft)
10/11/2011 05:25 8,8 C 91 % 1014,5 hPa 0,0 mm 0,4 km/h (0 Bft) E-SE 112 0 min 0 W/m 7,4 C 8,8 C 0,4 km/h (0 Bft)
10/11/2011 05:30 8,8 C 91 % 1014,5 hPa 0,0 mm 0,4 km/h (0 Bft) E-SE 112 0 min 0 W/m 7,4 C 8,8 C 0,4 km/h (0 Bft)
10/11/2011 05:35 8,8 C 91 % 1014,4 hPa 0,0 mm 1,4 km/h (1 Bft) E 90 0 min 0 W/m 7,4 C 8,8 C 4,0 km/h (1 Bft)
10/11/2011 05:40 8,8 C 91 % 1014,4 hPa 0,0 mm 2,2 km/h (1 Bft) E 90 0 min 0 W/m 7,4 C 8,8 C 4,0 km/h (1 Bft)
10/11/2011 05:45 8,9 C 91 % 1014,5 hPa 0,0 mm 1,4 km/h (1 Bft) E-SE 112 0 min 0 W/m 7,5 C 8,9 C 4,0 km/h (1 Bft)
10/11/2011 05:50 9,0 C 91 % 1014,5 hPa 0,0 mm 0,7 km/h (0 Bft) E-SE 112 0 min 0 W/m 7,6 C 9,0 C 3,2 km/h (1 Bft)
10/11/2011 05:55 9,1 C 91 % 1014,5 hPa 0,0 mm 1,8 km/h (1 Bft) E-SE 112 0 min 0 W/m 7,7 C 9,1 C 4,0 km/h (1 Bft)
10/11/2011 06:00 9,1 C 91 % 1014,5 hPa 0,0 mm 0,7 km/h (0 Bft) E-SE 112 0 min 0 W/m 7,7 C 9,1 C 0,7 km/h (0 Bft)
10/11/2011 06:05 9,3 C 91 % 1014,5 hPa 0,0 mm 0,7 km/h (0 Bft) E-SE 112 0 min 0 W/m 7,9 C 9,3 C 4,0 km/h (1 Bft)
10/11/2011 06:10 9,4 C 91 % 1014,6 hPa 0,0 mm 2,9 km/h (1 Bft) E 90 0 min 0 W/m 8,0 C 9,4 C 2,9 km/h (1 Bft)
10/11/2011 06:15 9,5 C 91 % 1014,6 hPa 0,0 mm 0,0 km/h (0 Bft) E-SE 112 0 min 0 W/m 8,1 C 9,5 C 0,0 km/h (0 Bft)
10/11/2011 06:20 9,6 C 91 % 1014,6 hPa 0,0 mm 0,4 km/h (0 Bft) E 90 0 min 0 W/m 8,2 C 9,6 C 3,6 km/h (1 Bft)
10/11/2011 06:25 9,6 C 91 % 1014,5 hPa 0,0 mm 2,2 km/h (1 Bft) E 90 0 min 0 W/m 8,2 C 9,6 C 4,3 km/h (1 Bft)
10/11/2011 06:30 9,6 C 91 % 1014,5 hPa 0,0 mm 0,0 km/h (0 Bft) E 90 0 min 0 W/m 8,2 C 9,6 C 3,6 km/h (1 Bft)
10/11/2011 06:35 9,7 C 92 % 1014,5 hPa 0,0 mm 2,5 km/h (1 Bft) E 90 0 min 0 W/m 8,5 C 9,7 C 4,3 km/h (1 Bft)
10/11/2011 06:40 9,7 C 92 % 1014,5 hPa 0,0 mm 0,0 km/h (0 Bft) E-SE 112 0 min 0 W/m 8,5 C 9,7 C 3,6 km/h (1 Bft)
10/11/2011 06:45 9,8 C 92 % 1014,5 hPa 0,0 mm 2,2 km/h (1 Bft) E-SE 112 0 min 0 W/m 8,6 C 9,8 C 7,2 km/h (2 Bft)
10/11/2011 06:50 9,8 C 92 % 1014,5 hPa 0,0 mm 1,4 km/h (1 Bft) E 90 0 min 0 W/m 8,6 C 9,8 C 4,3 km/h (1 Bft)
10/11/2011 06:55 9,8 C 92 % 1014,5 hPa 0,0 mm 0,7 km/h (0 Bft) E 90 0 min 0 W/m 8,6 C 9,8 C 0,7 km/h (0 Bft)
10/11/2011 07:00 9,9 C 92 % 1014,5 hPa 0,0 mm 1,8 km/h (1 Bft) E-SE 112 0 min 0 W/m 8,7 C 9,9 C 4,3 km/h (1 Bft)
10/11/2011 07:05 9,9 C 92 % 1014,5 hPa 0,0 mm 2,5 km/h (1 Bft) E 90 0 min 0 W/m 8,7 C 9,9 C 6,5 km/h (2 Bft)
10/11/2011 07:10 10,0 C 92 % 1014,4 hPa 0,0 mm 1,1 km/h (1 Bft) E 90 0 min 0 W/m 8,8 C 10,0 C 4,3 km/h (1 Bft)
10/11/2011 07:15 9,9 C 92 % 1014,5 hPa 0,0 mm 0,0 km/h (0 Bft) E 90 0 min 0 W/m 8,7 C 9,9 C 0,0 km/h (0 Bft)
10/11/2011 07:20 9,9 C 91 % 1014,5 hPa 0,0 mm 0,0 km/h (0 Bft) E-SE 112 0 min 0 W/m 8,5 C 9,9 C 3,2 km/h (1 Bft)
10/11/2011 07:25 9,8 C 92 % 1014,6 hPa 0,0 mm 1,1 km/h (1 Bft) E-SE 112 0 min 0 W/m 8,6 C 9,8 C 1,1 km/h (1 Bft)
10/11/2011 07:30 9,8 C 91 % 1014,6 hPa 0,0 mm 0,4 km/h (0 Bft) E-SE 112 0 min 0 W/m 8,4 C 9,8 C 4,3 km/h (1 Bft)
10/11/2011 07:35 9,8 C 92 % 1014,5 hPa 0,0 mm 1,4 km/h (1 Bft) E 90 0 min 0 W/m 8,6 C 9,8 C 4,0 km/h (1 Bft)
10/11/2011 07:40 9,8 C 92 % 1014,6 hPa 0,0 mm 0,4 km/h (0 Bft) E-SE 112 0 min 0 W/m 8,6 C 9,8 C 0,4 km/h (0 Bft)
10/11/2011 07:45 9,8 C 92 % 1014,6 hPa 0,0 mm 1,4 km/h (1 Bft) E 90 0 min 0 W/m 8,6 C 9,8 C 3,2 km/h (1 Bft)
10/11/2011 07:50 9,8 C 92 % 1014,6 hPa 0,0 mm 0,0 km/h (0 Bft) E-SE 112 0 min 0 W/m 8,6 C 9,8 C 0,0 km/h (0 Bft)
10/11/2011 07:55 9,8 C 91 % 1014,7 hPa 0,0 mm 3,2 km/h (1 Bft) E-SE 112 0 min 0 W/m 8,4 C 9,8 C 4,3 km/h (1 Bft)
10/11/2011 08:00 9,8 C 91 % 1014,7 hPa 0,0 mm 2,5 km/h (1 Bft) E 90 0 min 0 W/m 8,4 C 9,8 C 2,9 km/h (1 Bft)
10/11/2011 08:05 9,7 C 91 % 1014,7 hPa 0,0 mm 0,0 km/h (0 Bft) E 90 0 min 0 W/m 8,3 C 9,7 C 0,0 km/h (0 Bft)
10/11/2011 08:10 9,6 C 91 % 1014,7 hPa 0,0 mm 0,7 km/h (0 Bft) E 90 0 min 0 W/m 8,2 C 9,6 C 3,6 km/h (1 Bft)
10/11/2011 08:15 9,6 C 91 % 1014,7 hPa 0,0 mm 0,0 km/h (0 Bft) E-SE 112 0 min 0 W/m 8,2 C 9,6 C 3,2 km/h (1 Bft)
10/11/2011 08:20 9,6 C 91 % 1014,7 hPa 0,0 mm 1,8 km/h (1 Bft) E 90 0 min 0 W/m 8,2 C 9,6 C 4,3 km/h (1 Bft)
10/11/2011 08:25 9,6 C 91 % 1014,7 hPa 0,0 mm 3,6 km/h (1 Bft) E 90 0 min 0 W/m 8,2 C 9,6 C 3,6 km/h (1 Bft)
10/11/2011 08:30 9,8 C 91 % 1014,7 hPa 0,0 mm 2,2 km/h (1 Bft) E-SE 112 0 min 0 W/m 8,4 C 9,8 C 4,3 km/h (1 Bft)
10/11/2011 08:35 9,8 C 92 % 1014,7 hPa 0,0 mm 2,5 km/h (1 Bft) E-SE 112 0 min 0 W/m 8,6 C 9,8 C 4,3 km/h (1 Bft)
10/11/2011 08:40 10,0 C 93 % 1014,7 hPa 0,0 mm 1,8 km/h (1 Bft) E-SE 112 0 min 0 W/m 8,9 C 10,0 C 1,8 km/h (1 Bft)
10/11/2011 08:45 10,2 C 92 % 1014,8 hPa 0,0 mm 1,8 km/h (1 Bft) E 90 0 min 0 W/m 9,0 C 10,2 C 4,0 km/h (1 Bft)
10/11/2011 08:50 10,6 C 92 % 1014,9 hPa 0,0 mm 0,0 km/h (0 Bft) E-SE 112 0 min 0 W/m 9,4 C 10,6 C 3,2 km/h (1 Bft)
10/11/2011 08:55 10,9 C 92 % 1015,0 hPa 0,0 mm 0,0 km/h (0 Bft) SE 135 0 min 0 W/m 9,7 C 10,9 C 0,0 km/h (0 Bft)
10/11/2011 09:00 11,2 C 91 % 1015,1 hPa 0,0 mm 0,0 km/h (0 Bft) E-SE 112 0 min 0 W/m 9,8 C 11,2 C 0,0 km/h (0 Bft)
10/11/2011 09:05 11,3 C 90 % 1015,2 hPa 0,0 mm 0,0 km/h (0 Bft) SE 135 0 min 0 W/m 9,7 C 11,3 C 0,0 km/h (0 Bft)
10/11/2011 09:10 11,4 C 91 % 1015,2 hPa 0,0 mm 1,1 km/h (1 Bft) SE 135 0 min 0 W/m 10,0 C 11,4 C 3,6 km/h (1 Bft)
10/11/2011 09:15 11,4 C 90 % 1015,2 hPa 0,0 mm 0,0 km/h (0 Bft) E-SE 112 0 min 0 W/m 9,8 C 11,4 C 0,0 km/h (0 Bft)
10/11/2011 09:20 11,4 C 90 % 1015,2 hPa 0,0 mm 0,0 km/h (0 Bft) E-SE 112 0 min 0 W/m 9,8 C 11,4 C 0,0 km/h (0 Bft)
10/11/2011 09:25 11,4 C 90 % 1015,1 hPa 0,0 mm 0,0 km/h (0 Bft) E-SE 112 0 min 0 W/m 9,8 C 11,4 C 1,4 km/h (1 Bft)
10/11/2011 09:30 11,4 C 90 % 1015,1 hPa 0,0 mm 0,0 km/h (0 Bft) E-SE 112 0 min 0 W/m 9,8 C 11,4 C 0,0 km/h (0 Bft)
10/11/2011 09:35 11,4 C 90 % 1015,2 hPa 0,0 mm 2,2 km/h (1 Bft) E-SE 112 0 min 0 W/m 9,8 C 11,4 C 4,3 km/h (1 Bft)
10/11/2011 09:40 11,4 C 90 % 1015,2 hPa 0,0 mm 0,0 km/h (0 Bft) E 90 0 min 0 W/m 9,8 C 11,4 C 0,0 km/h (0 Bft)
10/11/2011 09:45 11,5 C 90 % 1015,4 hPa 0,0 mm 0,4 km/h (0 Bft) S-SE 157 0 min 0 W/m 9,9 C 11,5 C 3,6 km/h (1 Bft)
10/11/2011 09:50 11,7 C 91 % 1015,3 hPa 0,0 mm 2,9 km/h (1 Bft) SO 225 0 min 0 W/m 10,3 C 11,7 C 4,0 km/h (1 Bft)
10/11/2011 09:55 11,9 C 91 % 1015,3 hPa 0,0 mm 4,7 km/h (1 Bft) S 180 0 min 0 W/m 10,5 C 11,9 C 7,9 km/h (2 Bft)
10/11/2011 10:00 12,3 C 90 % 1015,3 hPa 0,0 mm 0,7 km/h (0 Bft) S-SE 157 0 min 0 W/m 10,7 C 12,3 C 4,3 km/h (1 Bft)
10/11/2011 10:05 12,6 C 90 % 1015,3 hPa 0,0 mm 2,5 km/h (1 Bft) SE 135 0 min 0 W/m 11,0 C 12,6 C 6,5 km/h (2 Bft)
10/11/2011 10:10 12,8 C 89 % 1015,3 hPa 0,0 mm 3,2 km/h (1 Bft) S-SE 157 0 min 0 W/m 11,0 C 12,8 C 4,3 km/h (1 Bft)
10/11/2011 10:15 13,1 C 88 % 1015,4 hPa 0,0 mm 4,7 km/h (1 Bft) S-SE 157 0 min 0 W/m 11,2 C 13,1 C 4,7 km/h (1 Bft)
10/11/2011 10:20 13,4 C 87 % 1015,5 hPa 0,0 mm 1,1 km/h (1 Bft) S-SE 157 0 min 0 W/m 11,3 C 13,4 C 2,9 km/h (1 Bft)
10/11/2011 10:25 13,5 C 87 % 1015,4 hPa 0,0 mm 2,2 km/h (1 Bft) S 180 0 min 0 W/m 11,4 C 13,5 C 4,3 km/h (1 Bft)
10/11/2011 10:30 13,7 C 86 % 1015,4 hPa 0,0 mm 1,8 km/h (1 Bft) S-SO 202 0 min 0 W/m 11,4 C 13,7 C 3,6 km/h (1 Bft)
10/11/2011 10:35 13,8 C 85 % 1015,5 hPa 0,0 mm 2,9 km/h (1 Bft) S 180 0 min 0 W/m 11,3 C 13,8 C 10,8 km/h (2 Bft)
10/11/2011 10:40 13,9 C 85 % 1015,5 hPa 0,0 mm 0,7 km/h (0 Bft) S 180 0 min 0 W/m 11,4 C 13,9 C 4,3 km/h (1 Bft)
10/11/2011 10:45 14,1 C 85 % 1015,5 hPa 0,0 mm 3,2 km/h (1 Bft) S 180 0 min 0 W/m 11,6 C 14,1 C 7,9 km/h (2 Bft)
10/11/2011 10:50 14,2 C 84 % 1015,5 hPa 0,0 mm 5,0 km/h (1 Bft) S-SE 157 0 min 0 W/m 11,5 C 14,2 C 5,0 km/h (1 Bft)
10/11/2011 10:55 14,3 C 84 % 1015,4 hPa 0,0 mm 1,4 km/h (1 Bft) S-SO 202 0 min 0 W/m 11,6 C 14,3 C 3,6 km/h (1 Bft)
10/11/2011 11:00 14,3 C 84 % 1015,4 hPa 0,0 mm 2,2 km/h (1 Bft) S 180 0 min 0 W/m 11,6 C 14,3 C 4,3 km/h (1 Bft)
10/11/2011 11:05 14,5 C 84 % 1015,4 hPa 0,0 mm 0,0 km/h (0 Bft) S-SE 157 0 min 0 W/m 11,8 C 14,5 C 0,0 km/h (0 Bft)
10/11/2011 11:10 14,6 C 84 % 1015,4 hPa 0,0 mm 6,8 km/h (2 Bft) S 180 0 min 0 W/m 11,9 C 14,6 C 10,1 km/h (2 Bft)
10/11/2011 11:15 14,8 C 83 % 1015,4 hPa 0,0 mm 1,4 km/h (1 Bft) S-SO 202 0 min 0 W/m 11,9 C 14,8 C 3,6 km/h (1 Bft)
10/11/2011 11:20 14,9 C 83 % 1015,5 hPa 0,0 mm 2,2 km/h (1 Bft) S 180 0 min 0 W/m 12,0 C 14,9 C 6,5 km/h (2 Bft)
10/11/2011 11:25 15,0 C 81 % 1015,5 hPa 0,0 mm 4,0 km/h (1 Bft) S 180 0 min 0 W/m 11,8 C 15,0 C 6,1 km/h (2 Bft)
10/11/2011 11:30 15,1 C 80 % 1015,4 hPa 0,0 mm 4,3 km/h (1 Bft) S 180 0 min 0 W/m 11,7 C 15,1 C 4,3 km/h (1 Bft)
10/11/2011 11:35 15,3 C 81 % 1015,5 hPa 0,0 mm 3,6 km/h (1 Bft) S-SO 202 0 min 0 W/m 12,1 C 15,3 C 6,1 km/h (2 Bft)
10/11/2011 11:40 15,4 C 80 % 1015,6 hPa 0,0 mm 6,1 km/h (2 Bft) S-SE 157 0 min 0 W/m 12,0 C 15,4 C 7,9 km/h (2 Bft)
10/11/2011 11:45 15,4 C 79 % 1015,5 hPa 0,0 mm 5,0 km/h (1 Bft) SO 225 0 min 0 W/m 11,8 C 15,4 C 8,3 km/h (2 Bft)
10/11/2011 11:50 15,5 C 79 % 1015,6 hPa 0,0 mm 5,0 km/h (1 Bft) S 180 0 min 0 W/m 11,9 C 15,5 C 8,6 km/h (2 Bft)
10/11/2011 11:55 16,0 C 80 % 1015,6 hPa 0,0 mm 5,8 km/h (2 Bft) S-SE 157 0 min 0 W/m 12,5 C 16,0 C 9,4 km/h (2 Bft)
10/11/2011 12:00 16,3 C 77 % 1015,6 hPa 0,0 mm 5,0 km/h (1 Bft) S 180 0 min 0 W/m 12,3 C 16,3 C 8,3 km/h (2 Bft)
10/11/2011 12:05 16,4 C 77 % 1015,7 hPa 0,0 mm 7,6 km/h (2 Bft) S-SO 202 0 min 0 W/m 12,4 C 16,4 C 8,6 km/h (2 Bft)
10/11/2011 12:10 16,6 C 77 % 1015,7 hPa 0,0 mm 1,8 km/h (1 Bft) SO 225 0 min 0 W/m 12,5 C 16,6 C 4,3 km/h (1 Bft)
10/11/2011 12:15 16,6 C 77 % 1015,6 hPa 0,0 mm 2,2 km/h (1 Bft) S-SO 202 0 min 0 W/m 12,5 C 16,6 C 3,6 km/h (1 Bft)
10/11/2011 12:20 16,8 C 76 % 1015,6 hPa 0,0 mm 6,8 km/h (2 Bft) S 180 0 min 0 W/m 12,5 C 16,8 C 7,9 km/h (2 Bft)
10/11/2011 12:25 16,8 C 75 % 1015,5 hPa 0,0 mm 6,8 km/h (2 Bft) SO 225 0 min 0 W/m 12,3 C 16,8 C 7,9 km/h (2 Bft)
10/11/2011 12:30 16,6 C 75 % 1015,5 hPa 0,0 mm 4,7 km/h (1 Bft) S-SO 202 0 min 0 W/m 12,1 C 16,6 C 9,4 km/h (2 Bft)
10/11/2011 12:35 16,4 C 74 % 1015,5 hPa 0,0 mm 7,2 km/h (2 Bft) S 180 0 min 0 W/m 11,8 C 16,4 C 8,3 km/h (2 Bft)
10/11/2011 12:40 16,3 C 75 % 1015,5 hPa 0,0 mm 9,7 km/h (2 Bft) S-SO 202 0 min 0 W/m 11,9 C 16,3 C 10,4 km/h (2 Bft)
10/11/2011 12:45 16,1 C 76 % 1015,5 hPa 0,0 mm 4,0 km/h (1 Bft) S 180 0 min 0 W/m 11,9 C 16,1 C 7,6 km/h (2 Bft)
10/11/2011 12:50 16,0 C 76 % 1015,4 hPa 0,0 mm 6,5 km/h (2 Bft) SO 225 0 min 0 W/m 11,8 C 16,0 C 9,0 km/h (2 Bft)
10/11/2011 12:55 15,9 C 77 % 1015,4 hPa 0,0 mm 2,5 km/h (1 Bft) S-SO 202 0 min 0 W/m 11,9 C 15,9 C 4,3 km/h (1 Bft)
10/11/2011 13:00 15,9 C 77 % 1015,4 hPa 0,0 mm 2,5 km/h (1 Bft) S 180 0 min 0 W/m 11,9 C 15,9 C 3,2 km/h (1 Bft)
10/11/2011 13:05 15,8 C 78 % 1015,4 hPa 0,0 mm 4,3 km/h (1 Bft) SO 225 0 min 0 W/m 12,0 C 15,8 C 7,6 km/h (2 Bft)
10/11/2011 13:10 15,8 C 77 % 1015,4 hPa 0,0 mm 2,2 km/h (1 Bft) S-SO 202 0 min 0 W/m 11,8 C 15,8 C 4,0 km/h (1 Bft)
10/11/2011 13:15 15,8 C 78 % 1015,3 hPa 0,0 mm 4,7 km/h (1 Bft) S-SE 157 0 min 0 W/m 12,0 C 15,8 C 9,7 km/h (2 Bft)
10/11/2011 13:20 15,7 C 79 % 1015,2 hPa 0,0 mm 3,6 km/h (1 Bft) S 180 0 min 0 W/m 12,1 C 15,7 C 7,2 km/h (2 Bft)
10/11/2011 13:25 15,8 C 79 % 1015,2 hPa 0,0 mm 4,7 km/h (1 Bft) S-SE 157 0 min 0 W/m 12,2 C 15,8 C 7,6 km/h (2 Bft)
10/11/2011 13:30 15,7 C 79 % 1015,2 hPa 0,0 mm 2,2 km/h (1 Bft) S-SO 202 0 min 0 W/m 12,1 C 15,7 C 4,3 km/h (1 Bft)
10/11/2011 13:35 15,6 C 79 % 1015,2 hPa 0,0 mm 1,1 km/h (1 Bft) S 180 0 min 0 W/m 12,0 C 15,6 C 3,6 km/h (1 Bft)
10/11/2011 13:40 15,6 C 79 % 1015,1 hPa 0,0 mm 4,3 km/h (1 Bft) S-SO 202 0 min 0 W/m 12,0 C 15,6 C 7,9 km/h (2 Bft)
10/11/2011 13:45 15,6 C 79 % 1015,1 hPa 0,0 mm 1,8 km/h (1 Bft) S 180 0 min 0 W/m 12,0 C 15,6 C 4,0 km/h (1 Bft)
10/11/2011 13:50 15,5 C 79 % 1015,1 hPa 0,0 mm 2,5 km/h (1 Bft) S-SO 202 0 min 0 W/m 11,9 C 15,5 C 2,5 km/h (1 Bft)
10/11/2011 13:55 15,4 C 79 % 1015,0 hPa 0,0 mm 4,7 km/h (1 Bft) S-SO 202 0 min 0 W/m 11,8 C 15,4 C 8,3 km/h (2 Bft)
10/11/2011 14:00 15,5 C 80 % 1015,1 hPa 0,0 mm 3,2 km/h (1 Bft) S-SO 202 0 min 0 W/m 12,1 C 15,5 C 6,5 km/h (2 Bft)
10/11/2011 14:05 15,4 C 80 % 1015,1 hPa 0,0 mm 4,7 km/h (1 Bft) S-SO 202 0 min 0 W/m 12,0 C 15,4 C 9,0 km/h (2 Bft)
10/11/2011 14:10 15,4 C 80 % 1015,1 hPa 0,0 mm 4,0 km/h (1 Bft) S-SE 157 0 min 0 W/m 12,0 C 15,4 C 8,3 km/h (2 Bft)
10/11/2011 14:15 15,3 C 80 % 1015,2 hPa 0,0 mm 6,1 km/h (2 Bft) SO 225 0 min 0 W/m 11,9 C 15,3 C 9,0 km/h (2 Bft)
10/11/2011 14:20 15,3 C 80 % 1015,1 hPa 0,0 mm 4,7 km/h (1 Bft) SO 225 0 min 0 W/m 11,9 C 15,3 C 7,6 km/h (2 Bft)
10/11/2011 14:25 15,2 C 81 % 1015,2 hPa 0,0 mm 2,9 km/h (1 Bft) SO 225 0 min 0 W/m 12,0 C 15,2 C 3,2 km/h (1 Bft)
10/11/2011 14:30 15,1 C 81 % 1015,2 hPa 0,0 mm 5,4 km/h (2 Bft) SO 225 0 min 0 W/m 11,9 C 15,1 C 9,7 km/h (2 Bft)
10/11/2011 14:35 15,1 C 81 % 1015,2 hPa 0,0 mm 1,1 km/h (1 Bft) SO 225 0 min 0 W/m 11,9 C 15,1 C 3,2 km/h (1 Bft)
10/11/2011 14:40 15,1 C 81 % 1015,2 hPa 0,0 mm 2,9 km/h (1 Bft) SO 225 0 min 0 W/m 11,9 C 15,1 C 4,0 km/h (1 Bft)
10/11/2011 14:45 14,9 C 82 % 1015,3 hPa 0,0 mm 6,1 km/h (2 Bft) SO 225 0 min 0 W/m 11,9 C 14,9 C 10,1 km/h (2 Bft)
10/11/2011 14:50 14,8 C 83 % 1015,2 hPa 0,0 mm 2,5 km/h (1 Bft) S-SO 202 0 min 0 W/m 11,9 C 14,8 C 2,5 km/h (1 Bft)
10/11/2011 14:55 14,8 C 84 % 1015,2 hPa 0,0 mm 1,4 km/h (1 Bft) SO 225 0 min 0 W/m 12,1 C 14,8 C 6,1 km/h (2 Bft)
10/11/2011 15:00 14,5 C 85 % 1015,2 hPa 0,1 mm 0,4 km/h (0 Bft) O-SO 247 0 min 0 W/m 12,0 C 14,5 C 3,2 km/h (1 Bft)
10/11/2011 15:05 14,3 C 86 % 1015,2 hPa 0,1 mm 2,2 km/h (1 Bft) SO 225 0 min 0 W/m 12,0 C 14,3 C 4,0 km/h (1 Bft)
10/11/2011 15:10 14,2 C 87 % 1015,3 hPa 0,1 mm 2,2 km/h (1 Bft) SO 225 0 min 0 W/m 12,1 C 14,2 C 2,2 km/h (1 Bft)
10/11/2011 15:15 13,9 C 87 % 1015,3 hPa 0,0 mm 1,4 km/h (1 Bft) S-SO 202 0 min 0 W/m 11,8 C 13,9 C 4,0 km/h (1 Bft)
10/11/2011 15:20 13,8 C 88 % 1015,4 hPa 0,1 mm 0,0 km/h (0 Bft) S-SO 202 0 min 0 W/m 11,8 C 13,8 C 0,0 km/h (0 Bft)
10/11/2011 15:25 13,8 C 88 % 1015,4 hPa 0,0 mm 0,0 km/h (0 Bft) S-SO 202 0 min 0 W/m 11,8 C 13,8 C 0,0 km/h (0 Bft)
10/11/2011 15:30 13,6 C 88 % 1015,4 hPa 0,1 mm 0,0 km/h (0 Bft) S-SO 202 0 min 0 W/m 11,6 C 13,6 C 0,0 km/h (0 Bft)
10/11/2011 15:35 13,6 C 88 % 1015,4 hPa 0,0 mm 0,0 km/h (0 Bft) S-SO 202 0 min 0 W/m 11,6 C 13,6 C 0,0 km/h (0 Bft)
10/11/2011 15:40 13,5 C 88 % 1015,4 hPa 0,1 mm 0,0 km/h (0 Bft) S-SO 202 0 min 0 W/m 11,6 C 13,5 C 0,0 km/h (0 Bft)
10/11/2011 15:45 13,4 C 88 % 1015,3 hPa 0,1 mm 0,0 km/h (0 Bft) S-SO 202 0 min 0 W/m 11,5 C 13,4 C 0,0 km/h (0 Bft)
10/11/2011 15:50 13,4 C 88 % 1015,4 hPa 0,2 mm 0,0 km/h (0 Bft) S-SO 202 0 min 0 W/m 11,5 C 13,4 C 0,0 km/h (0 Bft)
10/11/2011 15:55 13,3 C 89 % 1015,4 hPa 0,3 mm 0,0 km/h (0 Bft) S-SO 202 0 min 0 W/m 11,5 C 13,3 C 0,0 km/h (0 Bft)
10/11/2011 16:00 13,3 C 89 % 1015,3 hPa 0,1 mm 0,0 km/h (0 Bft) SE 135 0 min 0 W/m 11,5 C 13,3 C 0,0 km/h (0 Bft)
10/11/2011 16:05 13,2 C 89 % 1015,4 hPa 0,1 mm 0,0 km/h (0 Bft) SE 135 0 min 0 W/m 11,4 C 13,2 C 0,0 km/h (0 Bft)
10/11/2011 16:10 13,2 C 89 % 1015,3 hPa 0,1 mm 0,0 km/h (0 Bft) SE 135 0 min 0 W/m 11,4 C 13,2 C 0,0 km/h (0 Bft)
10/11/2011 16:15 13,1 C 90 % 1015,4 hPa 0,2 mm 0,0 km/h (0 Bft) E-SE 112 0 min 0 W/m 11,5 C 13,1 C 0,0 km/h (0 Bft)
10/11/2011 16:20 13,1 C 90 % 1015,4 hPa 0,0 mm 0,0 km/h (0 Bft) N 360 0 min 0 W/m 11,5 C 13,1 C 0,0 km/h (0 Bft)
10/11/2011 16:25 13,1 C 90 % 1015,4 hPa 0,1 mm 1,1 km/h (1 Bft) E-SE 112 0 min 0 W/m 11,5 C 13,1 C 4,0 km/h (1 Bft)
10/11/2011 16:30 13,0 C 90 % 1015,3 hPa 0,0 mm 0,7 km/h (0 Bft) E 90 0 min 0 W/m 11,4 C 13,0 C 0,7 km/h (0 Bft)
10/11/2011 16:35 12,9 C 90 % 1015,4 hPa 0,1 mm 2,2 km/h (1 Bft) E-SE 112 0 min 0 W/m 11,3 C 12,9 C 6,5 km/h (2 Bft)
10/11/2011 16:40 12,9 C 91 % 1015,2 hPa 0,0 mm 1,4 km/h (1 Bft) E 90 0 min 0 W/m 11,5 C 12,9 C 3,6 km/h (1 Bft)
10/11/2011 16:45 12,9 C 91 % 1015,0 hPa 0,0 mm 1,1 km/h (1 Bft) E 90 0 min 0 W/m 11,5 C 12,9 C 4,3 km/h (1 Bft)
10/11/2011 16:50 12,9 C 91 % 1015,0 hPa 0,0 mm 2,5 km/h (1 Bft) E-SE 112 0 min 0 W/m 11,5 C 12,9 C 9,0 km/h (2 Bft)
10/11/2011 16:55 12,9 C 91 % 1015,0 hPa 0,0 mm 1,8 km/h (1 Bft) E-SE 112 0 min 0 W/m 11,5 C 12,9 C 4,0 km/h (1 Bft)
10/11/2011 17:00 12,9 C 92 % 1015,0 hPa 0,0 mm 2,2 km/h (1 Bft) E 90 0 min 0 W/m 11,6 C 12,9 C 4,3 km/h (1 Bft)
10/11/2011 17:05 12,9 C 92 % 1014,9 hPa 0,0 mm 0,7 km/h (0 Bft) E-NE 67 0 min 0 W/m 11,6 C 12,9 C 3,2 km/h (1 Bft)
10/11/2011 17:10 12,9 C 92 % 1014,9 hPa 0,0 mm 4,0 km/h (1 Bft) E 90 0 min 0 W/m 11,6 C 12,9 C 4,0 km/h (1 Bft)
10/11/2011 17:15 12,8 C 92 % 1014,9 hPa 0,0 mm 4,0 km/h (1 Bft) SE 135 0 min 0 W/m 11,5 C 12,8 C 9,4 km/h (2 Bft)
10/11/2011 17:20 12,8 C 92 % 1014,8 hPa 0,0 mm 1,4 km/h (1 Bft) SE 135 0 min 0 W/m 11,5 C 12,8 C 4,0 km/h (1 Bft)
10/11/2011 17:25 12,8 C 92 % 1014,8 hPa 0,0 mm 1,4 km/h (1 Bft) E-SE 112 0 min 0 W/m 11,5 C 12,8 C 4,0 km/h (1 Bft)
10/11/2011 17:30 12,6 C 92 % 1014,7 hPa 0,0 mm 4,3 km/h (1 Bft) SE 135 0 min 0 W/m 11,3 C 12,6 C 4,3 km/h (1 Bft)
10/11/2011 17:35 12,6 C 92 % 1014,8 hPa 0,0 mm 2,5 km/h (1 Bft) E-SE 112 0 min 0 W/m 11,3 C 12,6 C 4,3 km/h (1 Bft)
10/11/2011 17:40 12,5 C 92 % 1014,8 hPa 0,0 mm 2,5 km/h (1 Bft) SE 135 0 min 0 W/m 11,2 C 12,5 C 6,5 km/h (2 Bft)
10/11/2011 17:45 12,5 C 92 % 1014,8 hPa 0,0 mm 1,4 km/h (1 Bft) SE 135 0 min 0 W/m 11,2 C 12,5 C 1,4 km/h (1 Bft)
10/11/2011 17:50 12,4 C 92 % 1014,7 hPa 0,0 mm 1,1 km/h (1 Bft) E-SE 112 0 min 0 W/m 11,1 C 12,4 C 1,1 km/h (1 Bft)
10/11/2011 17:55 12,4 C 92 % 1014,7 hPa 0,0 mm 0,4 km/h (0 Bft) E-SE 112 0 min 0 W/m 11,1 C 12,4 C 3,6 km/h (1 Bft)
10/11/2011 18:00 12,3 C 93 % 1014,8 hPa 0,0 mm 0,0 km/h (0 Bft) SE 135 0 min 0 W/m 11,2 C 12,3 C 3,2 km/h (1 Bft)
10/11/2011 18:05 12,3 C 93 % 1014,8 hPa 0,0 mm 4,0 km/h (1 Bft) SE 135 0 min 0 W/m 11,2 C 12,3 C 7,9 km/h (2 Bft)
10/11/2011 18:10 12,3 C 93 % 1014,9 hPa 0,0 mm 0,7 km/h (0 Bft) SE 135 0 min 0 W/m 11,2 C 12,3 C 6,1 km/h (2 Bft)
10/11/2011 18:15 12,3 C 93 % 1014,9 hPa 0,0 mm 0,0 km/h (0 Bft) E-SE 112 0 min 0 W/m 11,2 C 12,3 C 0,0 km/h (0 Bft)
10/11/2011 18:20 12,3 C 93 % 1014,9 hPa 0,0 mm 3,2 km/h (1 Bft) E-SE 112 0 min 0 W/m 11,2 C 12,3 C 3,2 km/h (1 Bft)
10/11/2011 18:25 12,2 C 93 % 1014,9 hPa 0,0 mm 1,4 km/h (1 Bft) E-SE 112 0 min 0 W/m 11,1 C 12,2 C 1,4 km/h (1 Bft)
10/11/2011 18:30 12,1 C 93 % 1014,9 hPa 0,0 mm 0,4 km/h (0 Bft) E-SE 112 0 min 0 W/m 11,0 C 12,1 C 3,6 km/h (1 Bft)
10/11/2011 18:35 12,0 C 93 % 1014,8 hPa 0,0 mm 2,2 km/h (1 Bft) E-SE 112 0 min 0 W/m 10,9 C 12,0 C 4,0 km/h (1 Bft)
10/11/2011 18:40 11,9 C 93 % 1014,8 hPa 0,0 mm 0,0 km/h (0 Bft) E-SE 112 0 min 0 W/m 10,8 C 11,9 C 0,0 km/h (0 Bft)
10/11/2011 18:45 11,8 C 93 % 1014,8 hPa 0,0 mm 0,4 km/h (0 Bft) E-SE 112 0 min 0 W/m 10,7 C 11,8 C 2,9 km/h (1 Bft)
10/11/2011 18:50 11,8 C 93 % 1014,8 hPa 0,0 mm 1,1 km/h (1 Bft) E-NE 67 0 min 0 W/m 10,7 C 11,8 C 4,0 km/h (1 Bft)
10/11/2011 18:55 11,7 C 93 % 1014,9 hPa 0,0 mm 0,7 km/h (0 Bft) E 90 0 min 0 W/m 10,6 C 11,7 C 2,9 km/h (1 Bft)
10/11/2011 19:00 11,6 C 93 % 1014,9 hPa 0,0 mm 1,4 km/h (1 Bft) E-SE 112 0 min 0 W/m 10,5 C 11,6 C 3,6 km/h (1 Bft)
10/11/2011 19:05 11,6 C 93 % 1014,8 hPa 0,0 mm 2,5 km/h (1 Bft) E-SE 112 0 min 0 W/m 10,5 C 11,6 C 3,2 km/h (1 Bft)
10/11/2011 19:10 11,6 C 93 % 1014,8 hPa 0,0 mm 1,1 km/h (1 Bft) SE 135 0 min 0 W/m 10,5 C 11,6 C 2,9 km/h (1 Bft)
10/11/2011 19:15 11,5 C 93 % 1014,8 hPa 0,0 mm 1,1 km/h (1 Bft) E-SE 112 0 min 0 W/m 10,4 C 11,5 C 4,3 km/h (1 Bft)
10/11/2011 19:20 11,5 C 93 % 1014,8 hPa 0,0 mm 0,4 km/h (0 Bft) E-SE 112 0 min 0 W/m 10,4 C 11,5 C 3,2 km/h (1 Bft)
10/11/2011 19:25 11,4 C 93 % 1014,9 hPa 0,0 mm 0,0 km/h (0 Bft) E-SE 112 0 min 0 W/m 10,3 C 11,4 C 0,0 km/h (0 Bft)
10/11/2011 19:30 11,4 C 93 % 1014,8 hPa 0,0 mm 0,0 km/h (0 Bft) E-SE 112 0 min 0 W/m 10,3 C 11,4 C 0,0 km/h (0 Bft)
10/11/2011 19:35 11,3 C 93 % 1014,7 hPa 0,0 mm 0,0 km/h (0 Bft) E-SE 112 0 min 0 W/m 10,2 C 11,3 C 0,0 km/h (0 Bft)
10/11/2011 19:40 11,2 C 93 % 1014,7 hPa 0,0 mm 0,0 km/h (0 Bft) E-SE 112 0 min 0 W/m 10,1 C 11,2 C 0,0 km/h (0 Bft)
10/11/2011 19:45 11,1 C 93 % 1014,7 hPa 0,0 mm 0,0 km/h (0 Bft) E-SE 112 0 min 0 W/m 10,0 C 11,1 C 0,0 km/h (0 Bft)
10/11/2011 19:50 11,0 C 93 % 1014,7 hPa 0,0 mm 0,0 km/h (0 Bft) E-SE 112 0 min 0 W/m 9,9 C 11,0 C 0,0 km/h (0 Bft)
10/11/2011 19:55 10,9 C 93 % 1014,7 hPa 0,0 mm 1,4 km/h (1 Bft) E-SE 112 0 min 0 W/m 9,8 C 10,9 C 1,4 km/h (1 Bft)
10/11/2011 20:00 10,9 C 93 % 1014,7 hPa 0,0 mm 1,1 km/h (1 Bft) E-SE 112 0 min 0 W/m 9,8 C 10,9 C 3,2 km/h (1 Bft)
10/11/2011 20:05 10,9 C 93 % 1014,7 hPa 0,0 mm 0,4 km/h (0 Bft) E-SE 112 0 min 0 W/m 9,8 C 10,9 C 0,4 km/h (0 Bft)
10/11/2011 20:10 10,9 C 93 % 1014,7 hPa 0,0 mm 2,2 km/h (1 Bft) E-SE 112 0 min 0 W/m 9,8 C 10,9 C 4,3 km/h (1 Bft)
10/11/2011 20:15 10,9 C 93 % 1014,8 hPa 0,0 mm 0,0 km/h (0 Bft) E-SE 112 0 min 0 W/m 9,8 C 10,9 C 0,0 km/h (0 Bft)
10/11/2011 20:20 10,9 C 93 % 1014,8 hPa 0,0 mm 1,8 km/h (1 Bft) E-SE 112 0 min 0 W/m 9,8 C 10,9 C 3,6 km/h (1 Bft)
10/11/2011 20:25 10,9 C 93 % 1014,7 hPa 0,0 mm 0,4 km/h (0 Bft) E-SE 112 0 min 0 W/m 9,8 C 10,9 C 0,4 km/h (0 Bft)
10/11/2011 20:30 10,9 C 93 % 1014,8 hPa 0,0 mm 0,4 km/h (0 Bft) E-SE 112 0 min 0 W/m 9,8 C 10,9 C 0,4 km/h (0 Bft)
10/11/2011 20:35 10,9 C 93 % 1014,8 hPa 0,0 mm 2,5 km/h (1 Bft) E-SE 112 0 min 0 W/m 9,8 C 10,9 C 2,5 km/h (1 Bft)
10/11/2011 20:40 10,9 C 93 % 1014,8 hPa 0,0 mm 3,2 km/h (1 Bft) E-SE 112 0 min 0 W/m 9,8 C 10,9 C 4,3 km/h (1 Bft)
10/11/2011 20:45 10,9 C 93 % 1014,7 hPa 0,0 mm 2,2 km/h (1 Bft) E-SE 112 0 min 0 W/m 9,8 C 10,9 C 3,6 km/h (1 Bft)
10/11/2011 20:50 10,9 C 93 % 1014,8 hPa 0,0 mm 0,4 km/h (0 Bft) E-SE 112 0 min 0 W/m 9,8 C 10,9 C 0,4 km/h (0 Bft)
10/11/2011 20:55 10,9 C 93 % 1014,7 hPa 0,0 mm 3,2 km/h (1 Bft) E-SE 112 0 min 0 W/m 9,8 C 10,9 C 4,3 km/h (1 Bft)
10/11/2011 21:00 10,9 C 94 % 1014,7 hPa 0,0 mm 2,9 km/h (1 Bft) E-SE 112 0 min 0 W/m 10,0 C 10,9 C 4,3 km/h (1 Bft)
10/11/2011 21:05 10,9 C 94 % 1014,7 hPa 0,0 mm 1,4 km/h (1 Bft) SE 135 0 min 0 W/m 10,0 C 10,9 C 4,0 km/h (1 Bft)
10/11/2011 21:10 10,9 C 94 % 1014,6 hPa 0,0 mm 0,4 km/h (0 Bft) E 90 0 min 0 W/m 10,0 C 10,9 C 0,4 km/h (0 Bft)
10/11/2011 21:15 10,9 C 94 % 1014,6 hPa 0,0 mm 1,8 km/h (1 Bft) E-SE 112 0 min 0 W/m 10,0 C 10,9 C 4,3 km/h (1 Bft)
10/11/2011 21:20 10,8 C 94 % 1014,6 hPa 0,0 mm 0,0 km/h (0 Bft) SE 135 0 min 0 W/m 9,9 C 10,8 C 0,0 km/h (0 Bft)
10/11/2011 21:25 10,8 C 94 % 1014,6 hPa 0,0 mm 0,0 km/h (0 Bft) SE 135 0 min 0 W/m 9,9 C 10,8 C 0,0 km/h (0 Bft)
10/11/2011 21:30 10,8 C 94 % 1014,6 hPa 0,0 mm 0,4 km/h (0 Bft) SE 135 0 min 0 W/m 9,9 C 10,8 C 2,9 km/h (1 Bft)
10/11/2011 21:35 10,6 C 94 % 1014,6 hPa 0,0 mm 0,0 km/h (0 Bft) E-SE 112 0 min 0 W/m 9,7 C 10,6 C 3,2 km/h (1 Bft)
10/11/2011 21:40 10,6 C 94 % 1014,7 hPa 0,0 mm 0,0 km/h (0 Bft) E-SE 112 0 min 0 W/m 9,7 C 10,6 C 0,0 km/h (0 Bft)
10/11/2011 21:45 10,4 C 94 % 1014,8 hPa 0,0 mm 0,0 km/h (0 Bft) E-SE 112 0 min 0 W/m 9,5 C 10,4 C 1,4 km/h (1 Bft)
10/11/2011 21:50 10,3 C 94 % 1014,8 hPa 0,0 mm 0,4 km/h (0 Bft) SE 135 0 min 0 W/m 9,4 C 10,3 C 2,9 km/h (1 Bft)
10/11/2011 21:55 10,2 C 94 % 1014,7 hPa 0,0 mm 1,8 km/h (1 Bft) E-SE 112 0 min 0 W/m 9,3 C 10,2 C 3,2 km/h (1 Bft)
10/11/2011 22:00 10,2 C 94 % 1014,8 hPa 0,0 mm 2,2 km/h (1 Bft) E-SE 112 0 min 0 W/m 9,3 C 10,2 C 2,2 km/h (1 Bft)
10/11/2011 22:05 10,2 C 94 % 1014,8 hPa 0,0 mm 2,5 km/h (1 Bft) E-SE 112 0 min 0 W/m 9,3 C 10,2 C 6,8 km/h (2 Bft)
10/11/2011 22:10 10,2 C 94 % 1014,8 hPa 0,0 mm 3,2 km/h (1 Bft) E-SE 112 0 min 0 W/m 9,3 C 10,2 C 4,3 km/h (1 Bft)
10/11/2011 22:15 10,2 C 94 % 1014,8 hPa 0,0 mm 1,8 km/h (1 Bft) E-SE 112 0 min 0 W/m 9,3 C 10,2 C 3,6 km/h (1 Bft)
10/11/2011 22:20 10,2 C 94 % 1014,8 hPa 0,0 mm 3,6 km/h (1 Bft) E-NE 67 0 min 0 W/m 9,3 C 10,2 C 9,0 km/h (2 Bft)
10/11/2011 22:25 10,2 C 94 % 1014,8 hPa 0,0 mm 3,2 km/h (1 Bft) E-SE 112 0 min 0 W/m 9,3 C 10,2 C 3,2 km/h (1 Bft)
10/11/2011 22:30 10,1 C 94 % 1014,8 hPa 0,0 mm 4,7 km/h (1 Bft) E-SE 112 0 min 0 W/m 9,2 C 10,1 C 8,6 km/h (2 Bft)
10/11/2011 22:35 10,2 C 94 % 1014,6 hPa 0,0 mm 0,4 km/h (0 Bft) E-SE 112 0 min 0 W/m 9,3 C 10,2 C 4,0 km/h (1 Bft)
10/11/2011 22:40 10,1 C 94 % 1014,7 hPa 0,0 mm 5,4 km/h (2 Bft) E-SE 112 0 min 0 W/m 9,2 C 10,1 C 7,9 km/h (2 Bft)
10/11/2011 22:45 10,1 C 94 % 1014,7 hPa 0,0 mm 1,8 km/h (1 Bft) S-SE 157 0 min 0 W/m 9,2 C 10,1 C 2,9 km/h (1 Bft)
10/11/2011 22:50 10,1 C 94 % 1014,6 hPa 0,0 mm 3,2 km/h (1 Bft) E-SE 112 0 min 0 W/m 9,2 C 10,1 C 3,2 km/h (1 Bft)
10/11/2011 22:55 10,1 C 94 % 1014,5 hPa 0,0 mm 3,6 km/h (1 Bft) E-SE 112 0 min 0 W/m 9,2 C 10,1 C 3,6 km/h (1 Bft)
10/11/2011 23:00 10,0 C 94 % 1014,5 hPa 0,0 mm 1,8 km/h (1 Bft) E-SE 112 0 min 0 W/m 9,1 C 10,0 C 3,6 km/h (1 Bft)
10/11/2011 23:05 9,9 C 94 % 1014,4 hPa 0,0 mm 2,2 km/h (1 Bft) E-SE 112 0 min 0 W/m 9,0 C 9,9 C 4,0 km/h (1 Bft)
10/11/2011 23:10 9,9 C 94 % 1014,4 hPa 0,0 mm 1,1 km/h (1 Bft) E-SE 112 0 min 0 W/m 9,0 C 9,9 C 4,3 km/h (1 Bft)
10/11/2011 23:15 9,9 C 94 % 1014,3 hPa 0,0 mm 1,4 km/h (1 Bft) SE 135 0 min 0 W/m 9,0 C 9,9 C 4,3 km/h (1 Bft)
10/11/2011 23:20 9,8 C 94 % 1014,4 hPa 0,0 mm 2,5 km/h (1 Bft) E-SE 112 0 min 0 W/m 8,9 C 9,8 C 4,3 km/h (1 Bft)
10/11/2011 23:25 9,8 C 94 % 1014,3 hPa 0,0 mm 0,0 km/h (0 Bft) E-SE 112 0 min 0 W/m 8,9 C 9,8 C 0,0 km/h (0 Bft)
10/11/2011 23:30 9,7 C 94 % 1014,4 hPa 0,0 mm 1,4 km/h (1 Bft) E-SE 112 0 min 0 W/m 8,8 C 9,7 C 2,9 km/h (1 Bft)
10/11/2011 23:35 9,6 C 94 % 1014,3 hPa 0,0 mm 2,2 km/h (1 Bft) E-SE 112 0 min 0 W/m 8,7 C 9,6 C 7,2 km/h (2 Bft)
10/11/2011 23:40 9,6 C 94 % 1014,3 hPa 0,0 mm 4,0 km/h (1 Bft) E-SE 112 0 min 0 W/m 8,7 C 9,6 C 8,3 km/h (2 Bft)
10/11/2011 23:45 9,5 C 94 % 1014,3 hPa 0,1 mm 0,0 km/h (0 Bft) E-SE 112 0 min 0 W/m 8,6 C 9,5 C 0,0 km/h (0 Bft)
10/11/2011 23:50 9,4 C 94 % 1014,3 hPa 0,0 mm 0,0 km/h (0 Bft) E-SE 112 0 min 0 W/m 8,5 C 9,4 C 0,0 km/h (0 Bft)
10/11/2011 23:55 9,4 C 94 % 1014,3 hPa 0,0 mm 0,0 km/h (0 Bft) E-SE 112 0 min 0 W/m 8,5 C 9,4 C 0,0 km/h (0 Bft)
_ Min-Heure 04:10 12:35 23:55 - 23:55 - - - - 03:55 04:10 23:55
Minimum _ 8,0 C 74 % 1014,3 hPa - 0,0 km/h (0 Bft) - - - - 6,6 C 8,0 C 0,0 km/h (0 Bft)
_ Max-Heure 12:25 23:55 00:40 15:55 12:40 - - 23:55 23:55 11:55 12:25 10:35
Maximum _ 16,8 C 94 % 1015,8 hPa 0,3 mm 9,7 km/h
S-SO (2 Bft)
- - 0 min 0 W/m 12,5 C 16,8 C 10,8 km/h
S (2 Bft)
Moyenne _ 11,4 C 89 % 1015,0 hPa #2,1 mm 1,7 km/h (1 Bft) E-SE - #0 min. 0 W/m 9,7 C 11,4 C 3,4 km/h (1 Bft)
Saint Bonnet de Bellac- Haute Vienne - France